Previsão horária em Abeokuta

Hoje, 20 Janeiro, Quarta-feira

Tempo Temperatura Precipitação Vento Pressão Humidade
00:00 +27°C° 0 mm 1 m/s 751 mmHg 79%
01:00 +27°C° 0 mm 1 m/s 751 mmHg 81%
02:00 +27°C° 0 mm 1 m/s 751 mmHg 84%
03:00 +26°C° 0 mm 1 m/s 751 mmHg 86%
04:00 +26°C° 0 mm 1 m/s 751 mmHg 87%
05:00 +26°C° 0 mm 1 m/s 751 mmHg 88%
06:00 +25°C° 0 mm 1 m/s 751 mmHg 91%
07:00 +28°C° 0 mm 1 m/s 752 mmHg 79%
08:00 +30°C° 0 mm 1 m/s 752 mmHg 67%
09:00 +32°C° 0 mm 2 m/s 752 mmHg 55%
10:00 +34°C° 0 mm 1 m/s 752 mmHg 43%
11:00 +37°C° 0 mm 1 m/s 751 mmHg 31%
12:00 +40°C° 0 mm 1 m/s 751 mmHg 20%
13:00 +40°C° 0 mm 1 m/s 750 mmHg 19%
14:00 +40°C° 0 mm 1 m/s 749 mmHg 17%
15:00 +40°C° 0 mm 2 m/s 748 mmHg 16%
16:00 +38°C° 0 mm 2 m/s 749 mmHg 23%
17:00 +36°C° 0 mm 2 m/s 749 mmHg 29%
18:00 +34°C° 0 mm 2 m/s 749 mmHg 36%
19:00 +31°C° 0 mm 2 m/s 750 mmHg 48%
20:00 +30°C° 0 mm 2 m/s 750 mmHg 60%
21:00 +29°C° 0 mm 2 m/s 750 mmHg 72%
22:00 +28°C° 0 mm 2 m/s 751 mmHg 76%
23:00 +27°C° 0 mm 1 m/s 751 mmHg 79%

Amanhã, 21 Janeiro, Quinta-feira

Tempo Temperatura Precipitação Vento Pressão Humidade
00:00 +27°C° 0 mm 1 m/s 751 mmHg 83%
01:00 +26°C° 0 mm 1 m/s 750 mmHg 86%
02:00 +26°C° 0 mm 1 m/s 750 mmHg 88%
03:00 +26°C° 0 mm 1 m/s 750 mmHg 90%
04:00 +25°C° 0 mm 1 m/s 751 mmHg 91%
05:00 +25°C° 0 mm 1 m/s 751 mmHg 92%
06:00 +23°C° 0 mm 0 m/s 751 mmHg 93%
07:00 +27°C° 0 mm 1 m/s 752 mmHg 79%
08:00 +30°C° 0 mm 1 m/s 752 mmHg 64%
09:00 +32°C° 0 mm 1 m/s 752 mmHg 50%
10:00 +35°C° 0 mm 1 m/s 752 mmHg 40%
11:00 +37°C° 0 mm 1 m/s 751 mmHg 30%
12:00 +41°C° 0 mm 1 m/s 751 mmHg 20%
13:00 +41°C° 0 mm 1 m/s 750 mmHg 19%
14:00 +41°C° 0 mm 1 m/s 750 mmHg 18%
15:00 +41°C° 0 mm 1 m/s 749 mmHg 17%
16:00 +38°C° 0 mm 2 m/s 749 mmHg 25%
17:00 +36°C° 0 mm 2 m/s 749 mmHg 33%
18:00 +32°C° 0 mm 2 m/s 749 mmHg 41%
19:00 +31°C° 0 mm 2 m/s 750 mmHg 51%
20:00 +30°C° 0 mm 2 m/s 750 mmHg 62%
21:00 +29°C° 0 mm 2 m/s 751 mmHg 72%
22:00 +28°C° 0 mm 2 m/s 751 mmHg 76%
23:00 +27°C° 0 mm 1 m/s 751 mmHg 80%

Depois de amanhã, 22 Janeiro, Sexta-feira

Tempo Temperatura Precipitação Vento Pressão Humidade
00:00 +25°C° 0 mm 0 m/s 751 mmHg 84%
01:00 +26°C° 0 mm 1 m/s 750 mmHg 86%
02:00 +26°C° 0 mm 1 m/s 750 mmHg 89%
03:00 +26°C° 0 mm 1 m/s 750 mmHg 91%
04:00 +25°C° 0 mm 1 m/s 750 mmHg 92%
05:00 +25°C° 0 mm 1 m/s 751 mmHg 93%
06:00 +25°C° 0 mm 1 m/s 751 mmHg 93%
07:00 +27°C° 0 mm 1 m/s 752 mmHg 81%
08:00 +30°C° 0 mm 1 m/s 752 mmHg 69%
09:00 +32°C° 0 mm 1 m/s 753 mmHg 57%
10:00 +34°C° 0 mm 1 m/s 752 mmHg 48%
11:00 +37°C° 0 mm 1 m/s 752 mmHg 38%
12:00 +40°C° 0 mm 1 m/s 751 mmHg 29%
13:00 +40°C° 0 mm 1 m/s 751 mmHg 28%
14:00 +40°C° 0 mm 1 m/s 750 mmHg 27%
15:00 +40°C° 0 mm 1 m/s 749 mmHg 25%
16:00 +38°C° 0 mm 2 m/s 749 mmHg 34%
17:00 +36°C° 0 mm 3 m/s 749 mmHg 42%
18:00 +33°C° 0 mm 4 m/s 749 mmHg 50%
19:00 +31°C° 0 mm 3 m/s 750 mmHg 57%
20:00 +30°C° 0 mm 3 m/s 751 mmHg 64%
21:00 +29°C° 0 mm 2 m/s 751 mmHg 71%
22:00 +28°C° 0 mm 2 m/s 751 mmHg 74%
23:00 +28°C° 0 mm 2 m/s 751 mmHg 77%

23 Janeiro, Sábado

Tempo Temperatura Precipitação Vento Pressão Humidade
00:00 +27°C° 0 mm 1 m/s 751 mmHg 80%
01:00 +27°C° 0 mm 1 m/s 751 mmHg 83%
02:00 +26°C° 0 mm 1 m/s 751 mmHg 85%
03:00 +26°C° 0 mm 1 m/s 750 mmHg 87%
04:00 +26°C° 0 mm 1 m/s 751 mmHg 89%
05:00 +26°C° 0 mm 1 m/s 751 mmHg 91%
06:00 +25°C° 0 mm 1 m/s 751 mmHg 92%
07:00 +28°C° 0 mm 1 m/s 751 mmHg 81%
08:00 +30°C° 0 mm 1 m/s 752 mmHg 69%
09:00 +32°C° 0 mm 1 m/s 752 mmHg 57%
10:00 +35°C° 0 mm 1 m/s 752 mmHg 48%
11:00 +37°C° 0 mm 1 m/s 751 mmHg 38%
12:00 +41°C° 0 mm 1 m/s 751 mmHg 29%
13:00 +40°C° 0 mm 1 m/s 750 mmHg 28%
14:00 +40°C° 0 mm 2 m/s 749 mmHg 28%
15:00 +40°C° 0 mm 2 m/s 748 mmHg 27%
16:00 +38°C° 0 mm 3 m/s 748 mmHg 36%
17:00 +35°C° 0 mm 3 m/s 748 mmHg 46%
18:00 +33°C° 0 mm 4 m/s 749 mmHg 56%
19:00 +32°C° 0 mm 4 m/s 749 mmHg 62%
20:00 +30°C° 0 mm 3 m/s 750 mmHg 68%
21:00 +28°C° 0 mm 3 m/s 751 mmHg 74%
22:00 +28°C° 0 mm 2 m/s 751 mmHg 77%
23:00 +28°C° 0 mm 1 m/s 751 mmHg 80%

24 Janeiro, Domingo

Tempo Temperatura Precipitação Vento Pressão Humidade
00:00 +25°C° 0 mm 0 m/s 751 mmHg 82%
01:00 +27°C° 0 mm 1 m/s 750 mmHg 84%
02:00 +27°C° 0 mm 1 m/s 750 mmHg 86%
03:00 +26°C° 0 mm 1 m/s 750 mmHg 88%
04:00 +26°C° 0 mm 1 m/s 750 mmHg 90%
05:00 +26°C° 0 mm 1 m/s 750 mmHg 91%
06:00 +25°C° 0 mm 1 m/s 751 mmHg 92%
07:00 +28°C° 0 mm 1 m/s 751 mmHg 81%
08:00 +30°C° 0 mm 1 m/s 752 mmHg 69%
09:00 +33°C° 0 mm 1 m/s 752 mmHg 57%
10:00 +35°C° 0 mm 1 m/s 751 mmHg 48%
11:00 +39°C° 0 mm 1 m/s 751 mmHg 38%
12:00 +41°C° 0 mm 1 m/s 750 mmHg 29%
13:00 +41°C° 0 mm 1 m/s 749 mmHg 27%
14:00 +41°C° 0 mm 1 m/s 749 mmHg 26%
15:00 +41°C° 0 mm 2 m/s 748 mmHg 24%
16:00 +38°C° 0 mm 2 m/s 748 mmHg 35%
17:00 +35°C° 0 mm 3 m/s 748 mmHg 46%
18:00 +33°C° 0 mm 4 m/s 748 mmHg 57%
19:00 +32°C° 0 mm 4 m/s 749 mmHg 63%
20:00 +30°C° 0 mm 3 m/s 749 mmHg 69%
21:00 +28°C° 0 mm 3 m/s 750 mmHg 74%
22:00 +28°C° 0 mm 2 m/s 750 mmHg 76%
23:00 +28°C° 0 mm 1 m/s 750 mmHg 78%

25 Janeiro, Segunda-feira

Tempo Temperatura Precipitação Vento Pressão Humidade
00:00 +25°C° 0 mm 0 m/s 750 mmHg 80%
01:00 +25°C° 0 mm 0 m/s 750 mmHg 82%
02:00 +27°C° 0 mm 1 m/s 750 mmHg 83%
03:00 +26°C° 0 mm 1 m/s 750 mmHg 85%
04:00 +26°C° 0 mm 1 m/s 750 mmHg 87%
05:00 +26°C° 0 mm 1 m/s 751 mmHg 89%
06:00 +25°C° 0 mm 1 m/s 751 mmHg 90%
07:00 +26°C° 0 mm 0 m/s 751 mmHg 80%
08:00 +28°C° 0 mm 0 m/s 752 mmHg 69%
09:00 +30°C° 0 mm 0 m/s 752 mmHg 58%
10:00 +33°C° 0 mm 0 m/s 752 mmHg 49%
11:00 +35°C° 0 mm 0 m/s 751 mmHg 41%
12:00 +41°C° 0 mm 1 m/s 751 mmHg 32%
13:00 +41°C° 0 mm 1 m/s 750 mmHg 29%
14:00 +41°C° 0 mm 1 m/s 749 mmHg 27%
15:00 +41°C° 0 mm 1 m/s 748 mmHg 25%
16:00 +39°C° 0 mm 2 m/s 748 mmHg 33%
17:00 +36°C° 0 mm 3 m/s 749 mmHg 42%
18:00 +34°C° 0 mm 4 m/s 749 mmHg 50%
19:00 +33°C° 0 mm 4 m/s 749 mmHg 58%
20:00 +30°C° 0 mm 3 m/s 750 mmHg 66%
21:00 +29°C° 0 mm 3 m/s 751 mmHg 73%
22:00 +28°C° 0 mm 2 m/s 751 mmHg 76%
23:00 +28°C° 0 mm 2 m/s 751 mmHg 79%
Mostrar mais